Weather History for Kankakee, IL

Change the Weather History Date:

Tuesday, October 30, 2012

  Actual Average Record
Temperature  
Mean Temperature 42 °F -  
Max Temperature 46 °F 60 °F 77 °F (1989)
Min Temperature 37 °F 37 °F 23 °F (1980)
Degree Days  
Heating Degree Days 24    
Moisture  
Dew Point 28 °F    
Average Humidity 58    
Maximum Humidity 73    
Minimum Humidity 48    
Precipitation  
Precipitation 0.00 in - - ()
Sea Level Pressure  
Sea Level Pressure 29.84 in    
Wind  
Wind Speed 12 mph (NW)    
Max Wind Speed 18 mph    
Max Gust Speed 30 mph    
Visibility 10 miles    
Events      
Averages and records for this station are not official NWS values.
T = Trace of Precipitation, MM = Missing Value Source: NWS Daily Summary

Daily Weather History Graph

Daily Weather History Graph

Search for Another Location

Airport:

Trip Planner

Search our weather history database for the weather conditions in past years. The results will help you decide how hot, cold, wet, or windy it might be!

Date:

Astronomy

Oct. 30, 2012 Rise Set
Actual Time 7:20 AM CDT 5:48 PM CDT
Civil Twilight 6:52 AM CDT 6:17 PM CDT
Nautical Twilight 6:19 AM CDT 6:49 PM CDT
Astronomical Twilight 5:47 AM CDT 7:21 PM CDT
Moon 6:17 PM CDT (10/30) 8:07 AM CDT (10/30)
Length of Visible Light 11h 25m
Length of Day
10h 28m
Full, 99% of the Moon is Illuminated
Oct 30
Full
Nov 6
Last Quarter
Nov 13
New
Nov 20
First Quarter
Nov 28
Full

Hourly Weather History & Observations

Time (CDT) Temp. Windchill Dew Point Humidity Pressure Visibility Wind Dir Wind Speed Gust Speed Precip Events Conditions
12:15 AM 41.4 °F 34.7 °F 28.6 °F 60% 30.01 in 10.0 mi NW 11.5 mph 19.6 mph N/A   Clear
12:55 AM 41.0 °F 33.1 °F 29.1 °F 63% 29.99 in 10.0 mi NNW 15.0 mph 19.6 mph N/A   Clear
1:15 AM 40.8 °F 34.1 °F 28.8 °F 62% 29.98 in 10.0 mi NW 11.5 mph 23.0 mph N/A   Clear
1:35 AM 40.1 °F 33.2 °F 28.4 °F 63% 29.97 in 10.0 mi NW 11.5 mph 17.3 mph N/A   Clear
1:55 AM 39.2 °F 33.0 °F 28.4 °F 65% 29.97 in 10.0 mi NW 9.2 mph 20.7 mph N/A   Clear
2:15 AM 39.2 °F 32.5 °F 30.2 °F 70% 29.96 in 10.0 mi NW 10.4 mph - N/A   Clear
2:35 AM 37.6 °F 31.0 °F 29.7 °F 73% 29.95 in 10.0 mi NW 9.2 mph 16.1 mph N/A   Clear
2:55 AM 37.6 °F 31.0 °F 29.7 °F 73% 29.94 in 10.0 mi NW 9.2 mph 16.1 mph N/A   Clear
3:15 AM 37.8 °F 29.4 °F 29.3 °F 72% 29.93 in 10.0 mi NW 13.8 mph 19.6 mph N/A   Scattered Clouds
3:35 AM 37.4 °F 29.8 °F 28.4 °F 70% 29.92 in 10.0 mi NW 11.5 mph 18.4 mph N/A   Scattered Clouds
3:55 AM 37.4 °F 30.3 °F 29.1 °F 72% 29.91 in 10.0 mi NW 10.4 mph 18.4 mph N/A   Clear
4:15 AM 37.6 °F 29.6 °F 28.6 °F 70% 29.91 in 10.0 mi NW 12.7 mph 19.6 mph N/A   Clear
4:35 AM 38.3 °F 30.5 °F 27.7 °F 66% 29.90 in 10.0 mi NW 12.7 mph 23.0 mph N/A   Clear
4:55 AM 38.5 °F 30.7 °F 27.9 °F 66% 29.89 in 10.0 mi NW 12.7 mph 21.9 mph N/A   Clear
5:15 AM 38.3 °F 30.1 °F 27.7 °F 66% 29.89 in 10.0 mi NW 13.8 mph 20.7 mph N/A   Clear
5:35 AM 38.5 °F 30.3 °F 27.5 °F 65% 29.89 in 10.0 mi NNW 13.8 mph 23.0 mph N/A   Clear
5:55 AM 38.5 °F 29.2 °F 28.0 °F 66% 29.89 in 10.0 mi NW 17.3 mph 25.3 mph N/A   Clear
6:15 AM 38.3 °F 31.4 °F 28.0 °F 67% 29.88 in 10.0 mi NW 10.4 mph 20.7 mph N/A   Clear
6:35 AM 37.9 °F 29.2 °F 28.4 °F 69% 29.87 in 10.0 mi NW 15.0 mph 23.0 mph N/A   Clear
6:55 AM 37.9 °F 29.6 °F 28.8 °F 70% 29.87 in 10.0 mi NNW 13.8 mph 23.0 mph N/A   Clear
7:15 AM 37.9 °F 29.2 °F 28.9 °F 70% 29.86 in 10.0 mi NNW 15.0 mph 24.2 mph N/A   Clear
7:35 AM 38.1 °F 29.1 °F 28.9 °F 70% 29.86 in 10.0 mi NNW 16.1 mph 21.9 mph N/A   Clear
7:55 AM 38.3 °F 30.1 °F 29.1 °F 70% 29.85 in 10.0 mi NW 13.8 mph 21.9 mph N/A   Clear
8:15 AM 39.2 °F 30.8 °F 28.4 °F 65% 29.85 in 10.0 mi NW 15.0 mph 20.7 mph N/A   Clear
8:35 AM 38.8 °F 31.2 °F 28.6 °F 67% 29.84 in 10.0 mi NW 12.7 mph 24.2 mph N/A   Clear
8:55 AM 39.2 °F 30.5 °F 28.4 °F 65% 29.84 in 10.0 mi NW 16.1 mph 23.0 mph N/A   Clear
9:15 AM 39.7 °F 32.3 °F 28.4 °F 64% 29.83 in 10.0 mi NNW 12.7 mph 23.0 mph N/A   Clear
9:35 AM 40.1 °F 32.4 °F 28.4 °F 63% 29.82 in 10.0 mi NW 13.8 mph 26.5 mph N/A   Clear
9:55 AM 40.3 °F 31.6 °F 28.0 °F 62% 29.82 in 10.0 mi NNW 17.3 mph 27.6 mph N/A   Clear
10:15 AM 40.6 °F 31.7 °F 28.2 °F 61% 29.82 in 10.0 mi NNW 18.4 mph 29.9 mph N/A   Clear
10:35 AM 41.4 °F 33.3 °F 27.9 °F 59% 29.81 in 10.0 mi NNW 16.1 mph 26.5 mph N/A   Clear
10:55 AM 41.5 °F 34.6 °F 27.9 °F 58% 29.81 in 10.0 mi NNW 12.7 mph 25.3 mph N/A   Clear
11:15 AM 42.3 °F 35.5 °F 27.5 °F 56% 29.81 in 10.0 mi NNW 12.7 mph 26.5 mph N/A   Clear
11:35 AM 42.4 °F 35.3 °F 27.5 °F 56% 29.81 in 10.0 mi NNW 13.8 mph 27.6 mph N/A   Clear
11:55 AM 43.7 °F 36.6 °F 27.9 °F 54% 29.81 in 10.0 mi NNW 15.0 mph 28.8 mph N/A   Scattered Clouds
12:15 PM 44.6 °F 37.2 °F 28.8 °F 54% 29.81 in 10.0 mi NNW 17.3 mph 24.2 mph N/A   Mostly Cloudy
12:35 PM 45.0 °F 37.6 °F 28.2 °F 52% 29.80 in 10.0 mi North 17.3 mph 21.9 mph N/A   Scattered Clouds
12:55 PM 45.5 °F 39.2 °F 28.4 °F 51% 29.79 in 10.0 mi NNW 13.8 mph 23.0 mph N/A   Scattered Clouds
1:15 PM 45.7 °F 38.6 °F 28.2 °F 51% 29.79 in 10.0 mi NNW 17.3 mph 23.0 mph N/A   Scattered Clouds
1:35 PM 45.7 °F 39.5 °F 28.2 °F 51% 29.78 in 10.0 mi NNW 13.8 mph 21.9 mph N/A   Mostly Cloudy
1:55 PM 46.4 °F 41.5 °F 28.6 °F 50% 29.78 in 10.0 mi NNW 10.4 mph 19.6 mph N/A   Overcast
2:15 PM 46.4 °F 39.8 °F 28.4 °F 50% 29.77 in 10.0 mi NW 16.1 mph 20.7 mph N/A   Overcast
2:35 PM 46.2 °F 40.8 °F 28.2 °F 50% 29.77 in 10.0 mi NW 11.5 mph 20.7 mph N/A   Overcast
2:55 PM 46.4 °F 40.4 °F 28.4 °F 50% 29.78 in 10.0 mi NW 13.8 mph 20.7 mph N/A   Overcast
3:15 PM 46.4 °F 40.1 °F 28.2 °F 49% 29.78 in 10.0 mi NNW 15.0 mph 21.9 mph N/A   Overcast
3:35 PM 46.4 °F 39.8 °F 28.2 °F 49% 29.78 in 10.0 mi NNW 16.1 mph 24.2 mph N/A   Overcast
3:55 PM 46.6 °F - 28.4 °F 49% 29.78 in 10.0 mi NNW 9.2 mph 23.0 mph N/A   Overcast
4:15 PM 46.6 °F - 28.9 °F 50% 29.78 in 10.0 mi NNW 10.4 mph 19.6 mph N/A   Overcast
4:35 PM 46.6 °F - 28.4 °F 49% 29.78 in 10.0 mi NNW 15.0 mph 23.0 mph N/A   Overcast
4:55 PM 46.6 °F - 28.2 °F 49% 29.79 in 10.0 mi NNW 15.0 mph 18.4 mph N/A   Overcast
5:15 PM 46.4 °F 40.1 °F 27.5 °F 48% 29.79 in 10.0 mi NW 15.0 mph 23.0 mph N/A   Overcast
5:35 PM 46.2 °F 40.1 °F 27.7 °F 48% 29.79 in 10.0 mi NW 13.8 mph 23.0 mph N/A   Overcast
5:55 PM 45.9 °F 39.4 °F 27.5 °F 49% 29.79 in 10.0 mi NW 15.0 mph 21.9 mph N/A   Overcast
6:15 PM 45.5 °F 39.6 °F 27.5 °F 49% 29.80 in 10.0 mi NW 12.7 mph 19.6 mph N/A   Overcast
6:35 PM 45.1 °F 39.1 °F 27.7 °F 50% 29.81 in 10.0 mi NNW 12.7 mph 17.3 mph N/A   Overcast
6:55 PM 45.1 °F 39.1 °F 27.9 °F 51% 29.81 in 10.0 mi NNW 12.7 mph 18.4 mph N/A   Overcast
7:15 PM 45.1 °F 40.3 °F 27.9 °F 51% 29.81 in 10.0 mi NNW 9.2 mph - N/A   Overcast
7:35 PM 45.0 °F 40.1 °F 28.2 °F 52% 29.81 in 10.0 mi NNW 9.2 mph 20.7 mph N/A   Overcast
7:55 PM 44.6 °F 38.8 °F 28.2 °F 53% 29.81 in 10.0 mi NNW 11.5 mph - N/A   Overcast
8:15 PM 44.6 °F 40.2 °F 28.0 °F 52% 29.81 in 10.0 mi NNW 8.1 mph - N/A   Overcast
8:35 PM 44.1 °F 41.5 °F 28.6 °F 55% 29.81 in 10.0 mi WNW 4.6 mph - N/A   Overcast
8:55 PM 43.3 °F 39.2 °F 27.5 °F 54% 29.81 in 10.0 mi NW 6.9 mph - N/A   Mostly Cloudy
9:15 PM 42.8 °F 39.3 °F 27.1 °F 54% 29.81 in 10.0 mi NW 5.8 mph - N/A   Scattered Clouds
9:35 PM 41.9 °F 39.0 °F 26.8 °F 55% 29.81 in 10.0 mi NW 4.6 mph - N/A   Scattered Clouds
9:55 PM 41.2 °F 38.2 °F 27.0 °F 57% 29.81 in 10.0 mi NW 4.6 mph - N/A   Clear
10:15 PM 41.0 °F 38.0 °F 26.6 °F 57% 29.80 in 10.0 mi NW 4.6 mph - N/A   Clear
10:35 PM 41.0 °F 35.8 °F 25.9 °F 55% 29.80 in 10.0 mi NW 8.1 mph - N/A   Clear
10:55 PM 41.4 °F 34.7 °F 24.8 °F 52% 29.79 in 10.0 mi NNW 11.5 mph - N/A   Clear
11:15 PM 41.0 °F 35.2 °F 25.0 °F 53% 29.79 in 10.0 mi NW 9.2 mph - N/A   Clear
11:35 PM 40.6 °F 35.4 °F 24.8 °F 53% 29.79 in 10.0 mi NW 8.1 mph - N/A   Clear
11:55 PM 40.3 °F 33.4 °F 24.8 °F 54% 29.79 in 10.0 mi NW 11.5 mph - N/A   Clear